Regional Weather Roundup
Issued by NWS Upton, NY

Current Version | Previous Version | Graphics & Text | Print | Product List | Glossary Off
Versions: 1 2 3 4 5 6 7 8 9 10 11 12 13 14 15 16 17 18 19 20 21 22 23 24 25 26 27 28 29 30 31 32 33 34 35 36 37 38 39 40 41 42 43 44 45 46 47 48 49 50

254
ASUS41 KOKX 222005
RWROKX

Regional Weather Roundup
National Weather Service New York NY
300 PM EST THU FEB 22 2018

Note: "FAIR" indicates few or no clouds below 12,000 feet with no
significant weather and/or obstructions to visibility.

NYZ071-072-176-178-NJZ106-104-222100-
New York City Metro Area

CITY           SKY/WX    TMP DP  RH WIND       PRES   REMARKS
Central Park   LGT RAIN  40  34  79 VRB6      30.60R
Bronx Bot Gard   N/A     39  34  81 N3        30.59R
Bronx Lehman C   N/A     41  32  70 N7          N/A
LaGuardia Arpt LGT RAIN  42  33  70 NE12      30.59R
Queens College   N/A     39  34  81 NE8         N/A  WCI  34
Kennedy Intl   LGT RAIN  41  38  89 NE15      30.58R FOG
Breezy Point     N/A     39 N/A N/A NE13G18     N/A  WCI  32
Brooklyn Coll    N/A     39  34  81 N10         N/A  WCI  32
Staten Island    N/A     39  36  87 NE8         N/A  WCI  34
Newark/Liberty LGT RAIN  40  35  83 NE14      30.59R WCI  32
Teterboro      HVY RAIN  41  37  86 N12G18    30.58R FOG
$$

NYZ177-179-078>081-222100-
Long Island New York

CITY           SKY/WX    TMP DP  RH WIND       PRES   REMARKS
Jones Beach      N/A     39 N/A N/A NE15        N/A  WCI  31
Wantagh          N/A     41  36  81 N10         N/A
Hempstead        N/A     41  37  87 NE5       30.61R
Matinecock Pt    N/A     39 N/A N/A E9          N/A  WCI  33
Farmingdale    LGT RAIN  40  37  89 NE6       30.55S FOG
MacArthur/ISP  LGT RAIN  41  37  86 E7        30.54S
Shirley        LGT RAIN  41  38  89 CALM      30.56R
Mt Sinai Harb    N/A     39 N/A N/A N10         N/A  WCI  32
Westhampton    LGT RAIN  42  34  73 NE9       30.57R
East Hampton   CLOUDY    41  26  55 NE8       30.57R
Southold         N/A     41  32  70 E12         N/A
Montauk        NOT AVBL
$$

NYZ052-065-067-222100-
Hudson Valley

CITY           SKY/WX    TMP DP  RH WIND       PRES   REMARKS
White Plains   LGT RAIN  38  31  76 N10       30.57R FOG     WCI  31
Larchmont Harb   N/A     39 N/A N/A N6          N/A  WCI  35
Croton On Huds   N/A     39 N/A N/A NE2G9       N/A
Somers           N/A     36  34  93 E1          N/A
Brewster         N/A     36  34  93 N1          N/A
Newburgh       LGT RAIN  36  36 100 NE8       30.60S FOG     WCI  29
Montgomery     LGT RAIN  35  32  88 NE9       30.58R WCI  28
Otisville        N/A     34  34 100 NE1         N/A
Warwick          N/A     36  36 100 E7          N/A  WCI  30
Suffern          N/A     36  34  93 NE7         N/A  WCI  30
Poughkeepsie   LGT RAIN  34  31  88 N7        30.60S FOG     WCI  28
Albany         SNOW      30  26  85 N8        30.68R VSB 1/2 WCI  22
$$

NJZ001-105-106-008-010-013-015-019>022-104-222100-
New Jersey

CITY           SKY/WX    TMP DP  RH WIND       PRES   REMARKS
Newark/Liberty LGT RAIN  40  35  83 NE14      30.59R WCI  32
Teterboro      HVY RAIN  41  37  86 N12G18    30.58R FOG
Caldwell       LGT RAIN  39  38  96 VRB5      30.59R FOG
Somerville     LGT RAIN  39  38  96 N7        30.56R FOG     WCI  34
Linden         DRIZZLE   40  35  80 NE9G16    30.59R WCI  35
Perth Amboy      N/A     41 N/A N/A NE14        N/A
Sussex         LGT RAIN  37  35  92 NE7       30.58S FOG     WCI  32
Andover          N/A     36  34  92 VRB3      30.58R
Trenton        LGT RAIN  42  36  79 NE17      30.52R
Millville      CLOUDY    47  39  74 E15       30.47R
Atlantic City  CLOUDY    45  39  79 NE20G29   30.49R
Wrightstown    CLOUDY    43  34  72 E16       30.49R
Toms River     LGT RAIN  40  38  93 NE12      30.54R FOG     WCI  33
Belmar         CLOUDY    42  34  73 NE16G22   30.54R
$$

PAZ047>061-062-071-222100-
Eastern Pennsylvania

CITY           SKY/WX    TMP DP  RH WIND       PRES   REMARKS
Philadelphia   CLOUDY    43  36  76 NE16G24   30.51R
Allentown      LGT RAIN  39  35  86 NE13      30.56R FOG     WCI  31
Scranton       LGT RAIN  39  38  96 NE6       30.54S FOG     WCI  35
$$

CTZ002-004>006-009-010-012-RIZ004-006-007-MAZ004-011-015-222100-
Southern New England

 In CT

CITY           SKY/WX    TMP DP  RH WIND       PRES   REMARKS
Bradley Intl   LGTSLEET  35  27  72 N10       30.61R WCI  27
Hartford       LGTSLEET  37  30  75 N12       30.60R WCI  29
Danbury        RAIN      37  31  78 NE5       30.60R WCI  33
Wtrbury/Oxford RAIN      35  29  78 NE12      30.58R WCI  27
Norwalk Harbor   N/A     39 N/A N/A N13G20      N/A  WCI  32
Bridgeport     CLOUDY    43  28  55 N8        30.58S
Meriden        LGT RAIN  37  30  75 N6        30.60R WCI  32
New Haven      CLOUDY    42  27  55 N13       30.57F
Chester        CLOUDY    43  27  52 NE5       30.57R
Groton         CLOUDY    44  32  62 E10       30.57R
Willimantic    LGT RAIN  40  31  70 N10       30.60R WCI  33

 In RI

CITY           SKY/WX    TMP DP  RH WIND       PRES   REMARKS
Providence     CLOUDY    42  26  53 NE13      30.60R
Block Island   CLOUDY    39  32  76 NE14      30.57R WCI  31
Westerly       CLOUDY    43  27  53 NE8       30.58R

In MA

CITY           SKY/WX    TMP DP  RH WIND       PRES   REMARKS
Boston         LGTSLEET  38  26  62 NE12      30.61R WCI  30
Worcester      LGT SNOW  33  25  72 NE5       30.58R WCI  29
Westfield      LGT SNOW  33  32  96 N3        30.62R FOG
Provincetown   LGT RAIN  38  27  64 NE12      30.60F WCI  30
Nantucket      CLOUDY    40  34  79 NE17G24   30.55F WCI  31
$$

ANZ330-335-338-340-345-350-353-355-222100-
Coastal Marine Observations


STATION/POSITION TIME  SKY/WX   TEMP    WIND        PRES    VSBY  WAVE
                                AIR SEA DIR/SP/G                  HT/PER
                 (UTC)          (F)     (DEG/KT/KT) (MB)    (MI)  (FT/S)
NY Harb Entrance 1950            41 41   50/ 17/ 21 1034.8          5/ 7
20 S Fire Island 1950            42 42   60/ 23/ 27 1032.7          6/ 7
15 E Barnegat Li 1900               42                N/A           6/ 6
Hudson Canyon    1950            45 46   70/ 21/ 27 1031.0          8/ 6
Kings Point      1948            40 38   70/  5/  8 1036.6
Execution Rocks  NOT AVBL
Western LI Sound NOT AVBL
Central LI Sound 1915            39      90/  6/  8   N/A           1
Robbins Reef     1948            40      50/ 17/ 19 1036.1
$$


>>>>>>>>>>>>>>>>>>>>>>>>>>>> KEY <<<<<<<<<<<<<<<<<<<<<<<<<<<
>                                                          <
>     SKY/WX - Sky Condition/Present Weather               <
>     TMP    - Temperature in Fahrenheit                   <
>     DP     - Dew Point in Fahrenheit                     <
>     RH     - Relative Humidity in Percent                <
>     WIND   - Direction (from) and Speed in MPH           <
>     PRES   - Mean Sea Level Pressure (inches of Hg)      <
>     WCI    - Wind Chill Index                            <
>     VSB    - Visibility in Miles                         <
>     HX     - Heat Index                                  <
>     TC     - Temperature in Celsius                      <
>     VRB    - Varibale Wind Direction                     <
>                                                          <
>>>>>>>>>>>>>>>>>>>>>>>>>>>> KEY <<<<<<<<<<<<<<<<<<<<<<<<<<<




USA.gov is the U.S. government's official web portal to all federal, state and local government web resources and services.